Miscellaneous Local Product
Issued by NWS Hastings, NE

Home | Current Version | Previous Version | Text Only | Print | Product List | Glossary Off
Versions: 1 2 3 4 5 6 7 8 9 10 11 12 13 14 15 16 17 18 19 20 21 22 23 24 25 26 27 28 29 30 31 32 33 34 35 36 37 38 39 40 41 42 43 44 45 46 47 48 49 50

874
AXUS43 KGID 250802
MISGRI

GID CWA HOURLY WEATHER ROUNDUP
NATIONAL WEATHER SERVICE HASTINGS NE
300 AM CDT SUN JUN 25 2017

NOTE: "FAIR" INDICATES FEW OR NO CLOUDS BELOW 12,000 FEET WITH NO
SIGNIFICANT WEATHER AND/OR OBSTRUCTIONS TO VISIBILITY.

...SOUTH CENTRAL NEBRASKA...

CITY           SKY/WX    TMP DP  RH WIND       PRES   REMARKS
GRAND ISLAND   PTCLDY    50  45  83 N6        30.30R
HASTINGS       PTCLDY    53  43  68 W3        30.30R
KEARNEY        CLEAR     54  39  58 NW5       30.30S
ORD            PTCLDY    49  37  63 N5        30.31R
YORK           CLEAR     52  43  71 N7        30.29R
AURORA         CLEAR     51  43  74 N9        30.29R
LEXINGTON      CLEAR     50  42  73 N9        30.31R
HOLDREGE       CLEAR     52  43  72 CALM      30.27F
HEBRON         CLEAR     53  49  87 CALM      30.27R

...NEBRASKA PANHANDLE...

CITY           SKY/WX    TMP DP  RH WIND       PRES   REMARKS
CHADRON        CLOUDY    55  37  50 N7        30.36S
ALLIANCE       CLOUDY    55  37  50 E6        30.37S
SCOTTSBLUFF    CLOUDY    60  38  43 NE15      30.36R
SIDNEY         CLEAR     47  40  76 S6        30.35F

...WESTERN AND NORTH CENTRAL NEBRASKA...

CITY           SKY/WX    TMP DP  RH WIND       PRES   REMARKS
VALENTINE      CLOUDY    48  34  58 NW3       30.35S
AINSWORTH      MOCLDY    49  38  66 NW3       30.35R
ONEILL         PTCLDY    48  42  80 W3        30.33R
BROKEN BOW     MOCLDY    55  39  54 N7        30.33R
IMPERIAL       CLEAR     51  45  79 SW3       30.32F
NORTH PLATTE   PTCLDY    44  38  79 CALM      30.33R
MCCOOK         CLEAR     53  49  86 SW8       30.29F

...EASTERN NEBRASKA...

CITY           SKY/WX    TMP DP  RH WIND       PRES   REMARKS
NORFOLK        PTCLDY    50  40  68 NW6       30.28R
SO SIOUX CITY  CLEAR     49  42  77 W5        30.25S
TEKAMAH        CLEAR     53  40  61 NW7       30.24R
COLUMBUS       CLOUDY    53  42  66 CALM      30.29R
ALBION         PTCLDY    49  39  68 CALM      30.30S
OMAHA EPPLEY   CLEAR     55  44  66 N5        30.24R
OFFUTT AFB     PTCLDY    57  42  57 N6        30.23R
MILLARD        PTCLDY    61  45  55 NW3       30.25R
LINCOLN        PTCLDY    52  45  77 N6        30.27R
NEBRASKA CITY  CLEAR     58  47  66 N7        30.24R
BEATRICE       PTCLDY    54  49  85 CALM      30.25R
FALLS CITY     CLEAR     54  48  80 NW7       30.21R

...NORTHERN KANSAS...

CITY           SKY/WX    TMP DP  RH WIND       PRES   REMARKS
GOODLAND       LGT RAIN  56  52  86 SE9       30.35F
HILL CITY      MOCLDY    61  59  93 NE3       30.29S
NORTON         SUNNY     54  43  66 CALM      30.28F
PHILLIPSBURG   CLEAR     54  54 100 W7        30.28S
SMITH CENTER   CLEAR     55  52  88 SW6       30.28S
HAYS           CLOUDY    63  49  60 E10       30.29S
RUSSELL        MOCLDY    59  52  77 E9        30.26F
CONCORDIA      CLEAR     62  51  67 SW9       30.26S
SALINA         LGT RAIN  64  58  80 W3        30.30F
TOPEKA         CLOUDY    67  50  54 W7        30.23R



USA.gov is the U.S. government's official web portal to all federal, state and local government web resources and services.